TimeEST,TemperatureF,Dew PointF,Humidity,Sea Level PressureIn,VisibilityMPH,Wind Direction,Wind SpeedMPH,Gust SpeedMPH,PrecipitationIn,Events,Conditions,WindDirDegrees,DateUTC
1:37 AM,53.6,50.0,88,29.91,4.0,West,16.1,-,0.00,Rain,Light Rain,280,2012-11-12 06:37:00
1:53 AM,52.0,50.0,93,29.91,4.0,West,8.1,-,0.01,Rain,Light Rain,260,2012-11-12 06:53:00
2:11 AM,51.8,50.0,94,29.90,10.0,SW,5.8,-,0.01,Rain,Light Rain,220,2012-11-12 07:11:00
2:39 AM,51.8,50.0,94,29.92,2.5,SSW,9.2,-,0.02,Rain,Light Rain,210,2012-11-12 07:39:00
2:43 AM,51.8,50.0,94,29.92,3.0,SSW,8.1,-,0.03,Rain,Light Rain,210,2012-11-12 07:43:00
2:53 AM,52.0,50.0,93,29.91,5.0,SSW,8.1,-,0.03,Rain,Light Rain,200,2012-11-12 07:53:00
3:12 AM,51.8,50.0,94,29.90,5.0,SSW,6.9,-,0.03,Rain,Light Rain,210,2012-11-12 08:12:00
3:35 AM,51.8,50.0,94,29.90,7.0,SSW,9.2,-,0.05,Rain,Light Rain,200,2012-11-12 08:35:00
3:46 AM,51.8,50.0,94,29.90,5.0,SSW,6.9,-,0.06,Rain,Light Rain,200,2012-11-12 08:46:00
3:53 AM,51.1,50.0,96,29.91,4.0,SSW,9.2,-,0.08,Rain,Rain,210,2012-11-12 08:53:00
4:15 AM,51.8,50.0,94,29.90,4.0,SSW,10.4,-,0.03,Rain,Rain,210,2012-11-12 09:15:00
4:42 AM,46.4,44.6,93,29.92,10.0,West,11.5,23.0,0.05,Rain,Light Rain,270,2012-11-12 09:42:00
4:53 AM,46.9,44.1,90,29.95,10.0,West,17.3,24.2,0.05,Rain,Light Rain,270,2012-11-12 09:53:00
5:11 AM,46.4,42.8,87,29.95,4.0,West,13.8,25.3,0.04,Rain,Rain,260,2012-11-12 10:11:00
5:53 AM,44.1,42.1,93,29.95,10.0,West,15.0,-,0.08,Rain,Light Rain,270,2012-11-12 10:53:00
6:20 AM,42.8,41.0,93,29.95,10.0,West,16.1,21.9,0.02,Rain,Light Rain,270,2012-11-12 11:20:00
6:53 AM,42.1,39.9,92,29.96,8.0,West,11.5,-,0.03,Rain,Light Rain,270,2012-11-12 11:53:00
7:00 AM,42.8,39.2,87,29.95,10.0,West,8.1,-,0.00,Rain,Light Rain,280,2012-11-12 12:00:00
7:12 AM,42.8,39.2,87,29.96,10.0,West,12.7,-,0.00,Rain,Light Rain,260,2012-11-12 12:12:00
7:27 AM,41.0,39.2,93,29.96,10.0,West,11.5,-,0.00,,Overcast,270,2012-11-12 12:27:00
7:39 AM,41.0,39.2,93,29.96,4.0,West,11.5,-,0.00,Rain,Light Rain,260,2012-11-12 12:39:00
7:53 AM,39.9,37.0,89,29.99,7.0,West,16.1,23.0,0.00,Rain,Light Rain,270,2012-11-12 12:53:00
8:53 AM,37.9,35.1,89,30.01,4.0,West,15.0,-,0.02,Rain,Light Rain,270,2012-11-12 13:53:00
9:53 AM,37.0,34.0,89,30.04,9.0,West,15.0,19.6,0.01,,Overcast,260,2012-11-12 14:53:00
10:53 AM,36.0,30.0,79,30.06,9.0,West,15.0,23.0,N/A,,Overcast,260,2012-11-12 15:53:00
11:53 AM,35.1,28.0,76,30.07,10.0,WSW,12.7,26.5,N/A,,Overcast,250,2012-11-12 16:53:00
12:53 PM,36.0,27.0,70,30.07,10.0,West,13.8,21.9,N/A,,Overcast,260,2012-11-12 17:53:00
1:53 PM,37.0,25.0,62,30.08,10.0,WSW,19.6,24.2,N/A,,Mostly Cloudy,250,2012-11-12 18:53:00
2:53 PM,36.0,23.0,59,30.10,10.0,West,17.3,25.3,N/A,,Scattered Clouds,260,2012-11-12 19:53:00
3:00 PM,35.6,24.8,65,30.08,10.0,West,18.4,25.3,N/A,,Partly Cloudy,260,2012-11-12 20:00:00
3:53 PM,36.0,24.1,62,30.12,10.0,West,12.7,23.0,N/A,,Overcast,270,2012-11-12 20:53:00
4:53 PM,35.1,23.0,61,30.15,10.0,WSW,16.1,26.5,N/A,,Mostly Cloudy,250,2012-11-12 21:53:00
5:53 PM,34.0,23.0,64,30.18,10.0,WSW,13.8,19.6,N/A,,Overcast,250,2012-11-12 22:53:00
6:53 PM,34.0,23.0,64,30.20,10.0,WSW,13.8,21.9,N/A,,Overcast,250,2012-11-12 23:53:00
7:53 PM,35.1,23.0,61,30.21,10.0,WSW,15.0,29.9,0.00,Snow,Light Snow,240,2012-11-13 00:53:00
8:53 PM,34.0,24.1,67,30.23,9.0,WSW,17.3,23.0,0.00,Snow,Light Snow,250,2012-11-13 01:53:00
9:53 PM,34.0,23.0,64,30.25,9.0,West,13.8,27.6,0.00,Snow,Light Snow,280,2012-11-13 02:53:00
10:53 PM,34.0,23.0,64,30.28,9.0,West,13.8,20.7,0.00,,Overcast,260,2012-11-13 03:53:00
11:53 PM,33.1,23.0,66,30.30,10.0,West,12.7,19.6,0.00,,Overcast,270,2012-11-13 04:53:00